Vorticity
6 6 6 7 7 8 9 10 10 9 8 10 12 13 13 13 14 14 13 13 13 12 12 12 12 12 12 12 13 13 14 15 16 17 18 18 18 18 18 17 17 16 16 17 17 18 18 18 19 19 20 20 20 21 21 21 21 21 20 20 20 20 20 20 20 20 20 20 20 19 18 17 16 16 16 15 13 11 12 13 13 13 13 13 14 14
6 7 7 8 9 9 9 10 11 11 9 10 12 13 13 13 14 14 14 14 13 12 12 12 12 12 12 13 13 14 15 17 18 18 19 19 19 19 19 18 18 18 18 18 18 18 19 19 20 20 20 21 22 22 23 23 23 23 23 23 22 22 22 21 21 21 20 21 20 20 20 19 18 18 18 17 16 16 15 15 15 14 13 13 14 15
7 8 9 9 9 10 9 10 12 13 12 12 12 13 13 13 14 14 14 13 13 13 12 12 13 13 13 13 14 16 17 18 18 18 19 19 19 19 20 20 19 19 19 19 19 19 19 20 20 20 21 21 21 22 23 23 23 23 23 22 21 21 20 20 19 19 19 18 18 18 18 18 18 18 18 18 18 18 17 17 16 15 14 15 15 15
8 8 9 8 10 11 12 10 10 12 14 13 14 14 14 14 14 14 14 13 13 13 13 13 14 14 14 14 16 17 19 19 18 18 18 18 19 19 20 20 20 19 19 19 18 18 18 18 18 18 19 19 19 19 20 20 20 20 20 19 19 18 18 17 17 17 16 16 16 15 15 15 15 15 16 16 17 17 17 17 17 16 16 17 17 16
9 10 8 8 9 11 12 12 11 12 13 14 14 14 15 15 15 15 14 14 14 14 14 14 14 15 15 16 17 18 19 19 18 17 16 17 18 18 19 18 18 18 17 16 16 15 14 14 13 13 14 14 15 15 15 16 16 16 16 16 16 16 15 15 15 15 14 14 14 14 14 14 14 14 14 14 15 15 15 15 15 15 15 15 15 15
10 10 8 9 10 10 10 12 13 13 13 14 14 15 15 16 16 15 15 14 14 14 13 13 14 15 16 17 18 19 19 18 17 15 14 14 15 15 15 15 14 14 13 12 11 10 9 9 8 8 9 10 11 12 13 13 13 14 14 14 14 14 14 13 13 13 13 13 13 13 13 13 13 13 13 13 13 13 13 13 13 13 13 13 13 13
9 10 9 11 11 11 10 12 13 13 13 13 14 16 17 17 16 16 15 14 14 14 13 13 14 16 17 18 19 19 19 18 16 14 12 12 11 11 11 11 11 10 9 9 8 7 6 6 6 7 8 9 11 12 12 13 13 13 13 14 14 14 14 13 13 13 13 13 13 13 13 13 13 13 13 13 13 12 12 12 12 11 11 11 11 12
8 10 11 12 11 11 13 14 14 14 15 14 15 16 17 17 17 16 15 15 14 14 13 13 14 16 18 19 20 20 19 17 15 13 10 9 9 9 9 9 9 9 9 9 9 9 9 9 9 9 10 11 12 13 13 13 14 14 14 15 15 15 15 15 14 14 14 14 13 13 13 13 13 13 12 12 12 12 12 12 12 12 11 11 11 12
8 9 12 13 12 10 10 13 15 16 16 16 16 16 15 16 16 15 15 15 15 14 12 12 13 15 19 21 22 22 21 18 14 11 9 7 7 7 7 7 7 8 10 12 13 14 15 14 14 13 13 13 13 14 14 14 15 15 15 16 16 16 16 16 15 15 15 14 14 14 13 13 13 13 13 12 12 12 12 12 12 12 12 12 13 13
12 11 10 13 14 13 10 12 13 15 16 16 16 16 16 17 17 17 16 16 15 13 11 11 13 16 20 23 25 26 24 20 15 11 9 8 7 6 5 4 3 3 5 8 11 13 15 16 16 16 16 15 15 15 15 15 16 16 16 17 17 17 17 17 16 16 16 15 15 14 14 14 13 13 13 13 13 13 13 13 13 13 13 13 13 13
13 13 12 12 13 14 16 13 12 13 15 15 15 16 18 21 21 19 16 15 14 13 12 12 14 16 19 21 23 25 24 21 17 13 10 9 8 7 5 3 1 0 1 4 7 9 11 13 14 15 15 15 15 14 14 15 16 16 17 17 17 17 17 17 17 17 16 16 16 15 14 14 13 13 13 13 13 13 13 13 13 13 13 14 14 14
12 12 13 12 12 12 14 14 13 14 15 15 16 17 20 23 21 18 15 13 13 14 15 13 13 14 17 18 19 20 20 18 17 16 14 12 11 10 10 7 4 2 2 4 6 8 9 10 11 12 12 12 12 12 12 13 13 15 16 16 17 17 17 17 16 16 16 15 15 14 14 13 13 12 12 12 12 12 12 12 13 13 13 13 13 13
13 13 12 12 13 13 13 12 13 13 15 16 17 17 17 15 13 13 13 13 14 15 14 12 11 10 11 14 16 16 15 15 15 16 16 15 14 15 15 13 10 7 6 7 8 10 10 10 10 10 10 9 8 7 8 9 10 11 13 14 15 15 15 14 14 14 13 13 12 12 12 11 11 11 11 11 11 11 11 11 12 12 12 12 13 13
13 13 12 13 13 14 14 13 13 13 14 16 18 17 14 12 12 12 11 12 12 11 10 10 9 8 8 9 10 11 11 11 12 13 13 13 15 17 18 16 14 11 9 9 10 12 12 11 11 10 8 7 6 5 5 5 6 7 8 10 11 11 11 11 10 10 9 9 9 9 9 9 9 10 10 10 10 11 11 11 11 11 12 12 12 12
12 11 12 13 13 13 14 13 14 15 16 17 17 16 14 15 14 13 13 12 9 6 7 7 7 7 7 7 7 7 7 9 10 10 8 9 11 14 16 15 14 13 11 10 10 11 12 11 10 10 9 8 7 6 5 5 4 4 5 6 7 7 7 7 6 6 6 6 6 6 6 6 7 7 8 9 9 10 10 10 10 10 11 11 11 12
12 12 12 13 13 15 16 16 16 16 16 17 18 17 16 14 12 10 12 10 7 4 4 5 6 7 6 6 7 8 10 11 11 10 8 7 8 9 12 13 13 12 10 8 7 7 6 7 7 8 9 9 9 9 8 7 7 6 5 5 5 4 4 4 3 3 3 4 4 4 4 5 5 5 6 7 7 8 8 8 8 8 9 9 10 10
12 13 13 13 14 15 16 17 17 16 15 16 18 20 19 15 12 10 7 5 4 3 3 4 5 6 6 6 9 13 16 18 17 14 11 9 8 9 9 9 8 6 4 2 1 2 3 4 6 7 9 10 11 12 12 12 11 10 9 7 6 5 4 3 2 1 1 1 2 3 4 4 4 4 4 5 5 6 6 6 6 6 6 7 8 8
13 13 13 14 14 15 15 16 17 17 17 19 20 21 20 17 12 6 2 2 3 5 7 7 7 7 7 10 15 20 22 23 19 13 10 7 8 9 8 7 5 0 -4 -6 -6 -4 0 5 7 8 9 10 12 13 14 15 15 14 13 12 10 9 7 5 3 2 0 -0 0 2 3 5 5 5 4 4 4 4 5 5 4 4 4 5 5 6
13 13 14 15 15 16 16 17 17 18 19 20 20 19 19 15 9 3 -2 1 6 10 12 12 12 12 11 15 20 24 25 22 16 11 9 9 9 10 9 9 6 3 -0 -2 -3 -2 2 5 7 9 9 9 10 11 13 14 15 16 16 16 15 13 12 10 8 5 3 2 1 2 3 5 7 7 6 5 4 3 4 4 4 4 4 4 4 4
12 14 16 16 15 15 16 17 18 18 19 20 20 19 19 16 11 4 -5 -0 5 10 13 15 18 18 14 14 13 11 7 3 2 2 4 5 6 8 11 12 12 10 8 6 6 6 7 7 6 6 6 6 7 7 9 10 11 12 13 15 16 17 16 15 14 12 9 7 6 5 5 7 9 9 9 7 5 4 3 4 4 5 5 5 4 4
10 13 16 15 14 14 14 15 16 17 17 17 18 18 19 16 10 1 -8 -2 3 7 11 14 13 9 2 3 4 2 -4 -6 -8 -10 -10 -7 -5 -4 -2 3 5 6 5 5 6 7 8 7 5 3 1 1 1 2 3 4 5 6 6 8 10 13 15 16 16 15 14 12 11 9 9 10 11 12 12 9 7 5 3 3 4 4 5 5 5 5
10 10 13 14 15 15 15 15 15 16 15 14 14 14 15 14 8 1 -4 -4 -3 -2 0 1 -3 -7 -7 0 5 7 6 2 0 0 2 -0 -2 -4 -5 -5 -3 -1 -1 -2 -2 -2 -0 0 -0 -2 -4 -5 -5 -4 -3 -2 -1 0 2 4 5 7 9 10 12 13 13 13 13 12 12 12 12 13 13 11 9 6 4 3 4 4 4 4 4 4
10 10 11 14 16 16 16 16 16 16 15 13 12 11 12 12 11 8 5 1 -3 -6 -6 -6 -5 -4 0 3 7 9 8 7 7 7 8 7 7 6 4 3 3 3 2 0 -2 -4 -5 -5 -5 -5 -6 -6 -4 -4 -4 -5 -5 -4 -3 0 3 6 7 7 8 8 9 10 11 12 12 12 12 12 13 12 10 7 5 4 4 4 4 4 4 4
9 10 11 14 16 16 15 15 14 13 13 11 9 8 8 7 7 8 8 8 7 6 5 4 4 5 6 8 10 10 9 7 8 9 9 10 11 12 10 10 11 12 13 11 9 7 6 4 3 3 4 6 8 8 6 1 -2 -4 -5 -3 -0 3 6 7 7 7 7 8 9 10 10 10 10 11 12 12 10 8 6 5 4 4 4 3 3 3
9 10 13 16 17 15 12 10 9 7 5 5 6 6 5 5 5 5 6 7 7 8 8 8 8 9 11 10 9 9 8 8 11 14 17 20 21 21 19 18 18 19 22 21 20 21 21 21 20 21 22 24 26 25 22 16 10 5 0 -2 -2 0 2 5 6 7 8 8 8 8 8 7 8 9 10 10 9 8 7 6 5 4 3 3 2 2
9 11 14 16 14 9 6 6 5 4 2 2 3 3 1 -1 -1 -0 1 1 2 4 7 8 9 9 9 6 4 3 4 8 13 18 23 28 30 31 29 27 26 25 26 26 26 27 28 29 30 30 31 33 34 34 32 28 23 17 11 6 3 2 1 2 3 4 6 7 8 8 7 7 7 7 7 7 6 5 5 4 4 4 3 2 2 2
8 10 13 10 5 1 2 3 2 1 1 2 3 2 1 -0 -1 -2 -1 1 4 7 11 11 11 10 8 7 6 5 6 10 15 21 26 29 30 30 29 28 27 25 25 24 24 24 25 26 26 27 27 29 30 31 32 32 30 26 21 16 11 7 4 2 1 2 2 4 6 7 8 7 6 6 5 4 3 2 2 3 3 3 3 3 2 2
6 8 11 9 5 2 1 2 2 2 3 4 4 2 -1 -2 -2 -1 2 5 9 12 12 10 8 6 5 5 4 3 5 10 15 20 24 24 23 22 21 20 20 19 18 18 18 18 18 18 19 20 21 22 24 25 27 28 30 30 28 23 18 13 9 5 3 2 1 2 4 5 7 7 7 6 5 4 3 2 2 2 3 4 4 4 3 3
7 8 10 12 12 10 7 6 5 4 4 3 1 -1 -3 -4 -3 1 8 12 14 14 11 8 5 1 -2 -3 -3 -1 2 7 13 19 21 18 16 15 15 15 15 14 15 16 18 18 17 18 19 20 20 20 20 21 21 23 26 28 29 27 24 19 14 10 7 4 3 2 3 4 5 6 7 7 7 6 5 4 4 4 5 5 5 5 5 4
7 7 9 12 13 13 12 10 9 8 7 7 6 5 4 2 5 10 17 20 18 15 11 9 6 2 -2 -5 -5 -2 2 8 15 20 19 16 15 15 15 15 16 17 18 20 21 22 22 22 22 22 22 21 20 19 19 20 21 24 26 27 26 24 20 16 13 9 7 6 5 4 4 5 5 6 7 7 7 6 6 6 6 6 6 6 6 5
4 4 7 9 11 13 14 14 14 15 15 16 16 17 17 16 17 20 24 23 18 13 11 11 9 5 1 -2 -2 1 5 13 19 22 19 18 18 18 18 19 21 22 23 23 23 24 25 24 23 23 23 22 21 20 19 19 19 20 22 23 24 25 24 22 19 16 13 11 9 7 6 5 5 5 6 6 6 7 7 6 6 6 6 6 6 6
1 3 6 7 9 10 12 13 15 17 19 22 24 26 27 27 26 26 25 20 15 11 9 10 9 7 4 2 2 5 13 22 26 25 21 20 20 21 21 22 22 22 22 21 20 20 22 22 22 21 22 22 22 22 21 20 19 19 19 20 21 22 23 24 23 22 20 18 15 12 10 8 6 6 5 6 6 6 6 6 6 6 6 6 6 6
3 6 7 8 8 8 9 10 13 16 21 26 30 32 32 31 29 27 23 17 13 10 8 8 7 6 4 3 6 12 22 29 30 27 22 21 20 20 20 19 19 18 18 17 16 16 17 18 19 19 20 20 21 22 23 22 21 20 19 19 19 20 21 22 23 24 24 22 20 18 15 12 10 8 7 6 6 6 6 6 6 6 6 6 6 6
9 10 11 11 11 11 10 12 16 22 28 31 33 33 33 31 29 26 22 17 13 10 8 6 5 5 5 9 15 23 32 32 29 24 20 18 17 16 16 15 15 15 15 15 15 15 15 15 17 18 18 18 19 20 22 23 23 22 21 20 19 19 19 20 21 22 23 23 23 22 20 17 14 12 10 9 8 7 6 6 6 6 6 6 7 7
12 13 14 14 14 15 17 21 26 30 32 31 30 29 29 28 27 26 24 20 17 14 11 9 9 10 12 19 26 32 34 28 22 18 15 14 13 13 13 13 14 15 16 16 16 16 16 16 16 17 18 18 18 18 18 20 22 22 22 21 20 19 19 19 19 20 21 22 22 22 22 20 18 16 14 12 10 9 7 7 6 6 6 7 7 8
13 14 16 17 19 21 25 28 29 28 25 22 22 22 23 24 25 26 25 24 22 19 16 15 15 18 23 29 31 30 26 20 15 13 11 11 12 13 14 15 16 17 18 17 17 17 18 17 17 18 18 19 18 17 16 18 19 21 21 21 21 20 20 19 19 19 20 20 20 21 21 20 19 18 16 14 12 11 9 8 8 7 7 8 8 9
15 16 18 21 25 28 30 29 24 19 14 13 14 15 17 19 21 22 22 21 20 19 18 20 24 28 32 31 27 22 16 13 12 11 11 12 13 14 16 16 17 17 18 18 18 18 18 19 19 19 19 19 19 18 18 18 18 18 19 20 21 21 21 21 20 20 20 20 20 21 21 20 19 18 17 15 14 12 11 10 9 9 9 9 10 10
18 20 23 27 30 30 29 22 14 9 7 8 10 11 12 13 14 14 15 15 15 17 20 25 29 31 29 23 18 13 11 11 11 12 13 14 14 15 15 15 16 16 17 17 17 17 18 19 19 19 19 18 18 19 20 20 19 18 18 19 20 21 22 23 22 22 21 21 22 22 22 21 21 20 19 17 16 14 13 12 11 11 11 11 12 12
21 24 27 29 30 27 21 12 7 4 5 6 8 9 9 10 10 11 12 14 18 21 25 28 27 24 19 14 11 10 10 12 13 14 15 15 14 14 14 14 14 14 14 14 15 15 16 17 18 20 21 21 20 19 20 20 19 19 20 20 21 22 24 24 23 23 22 22 22 23 23 23 23 23 22 21 20 18 16 16 15 15 15 15 16 17
24 26 29 30 26 20 13 7 4 4 5 6 7 9 9 11 13 16 19 22 25 27 27 24 20 16 11 10 10 11 12 13 14 15 14 14 13 13 13 13 12 12 12 12 13 13 15 16 17 18 20 21 21 21 20 19 19 20 22 21 20 21 22 22 22 22 21 21 21 22 23 25 26 26 26 26 25 23 22 21 20 20 19 20 21 23
25 27 29 26 21 14 7 4 3 4 5 8 10 12 14 17 20 22 25 26 26 24 20 17 13 10 9 8 9 11 12 13 13 13 13 13 12 12 12 11 11 11 11 10 11 12 14 16 17 18 18 19 20 20 19 18 19 20 20 18 18 18 18 19 20 20 21 21 22 22 23 25 27 29 30 30 29 28 26 25 24 23 24 25 25 26
25 26 26 21 15 8 3 2 2 4 7 10 13 16 20 22 23 24 23 22 20 17 14 12 12 11 10 9 8 9 10 11 11 11 11 11 11 11 11 10 9 9 9 9 9 10 12 15 16 16 17 18 18 18 17 17 18 17 16 15 15 17 21 23 22 20 19 19 19 20 22 24 26 28 29 30 30 30 29 27 26 26 27 29 30 30
24 23 19 13 8 4 2 3 5 7 10 13 16 20 24 23 23 22 20 17 13 10 10 10 10 10 8 7 8 9 9 10 10 10 10 11 11 11 11 9 8 7 7 7 7 8 9 11 13 15 17 17 17 16 16 16 16 15 13 12 13 14 20 21 20 18 18 16 13 13 16 18 21 23 26 27 28 28 29 29 29 29 29 29 28 28
20 17 13 8 5 3 2 4 7 9 12 15 19 23 24 22 21 19 17 13 10 8 8 10 11 10 4 2 5 9 11 11 11 11 11 11 11 11 11 9 8 7 6 6 6 8 10 10 12 15 18 19 18 17 16 15 13 12 11 10 11 14 20 17 16 15 15 12 10 9 11 15 18 20 23 25 26 27 28 29 28 28 27 26 25 23
15 10 6 4 3 2 3 6 8 11 13 17 22 24 23 20 17 15 13 11 9 8 9 11 11 8 1 2 5 9 12 14 14 13 13 13 13 13 12 11 9 8 6 6 5 6 9 11 14 16 18 20 20 19 18 15 13 11 9 9 11 14 19 20 19 17 13 9 7 7 8 11 13 16 18 21 22 22 22 22 21 20 18 19 19 19
10 6 4 3 2 2 5 8 10 13 16 20 23 24 21 17 14 12 11 10 10 9 10 12 11 8 3 6 9 11 13 15 16 16 15 14 14 14 14 13 11 9 7 6 6 6 7 10 13 16 18 19 20 20 19 16 14 12 11 10 11 13 16 17 17 15 12 9 7 5 4 5 8 11 15 15 14 13 13 14 14 14 13 14 15 15
8 6 4 3 3 4 8 10 12 15 18 22 24 23 18 15 12 11 10 10 11 11 12 12 9 6 5 7 10 11 13 15 16 16 15 15 15 15 14 14 13 11 8 6 6 7 7 9 10 13 15 17 19 20 20 19 17 15 14 13 14 14 15 14 12 10 8 7 7 6 5 6 10 13 15 13 11 10 9 10 11 12 12 13 14 14
6 3 2 2 5 8 10 12 14 17 21 23 23 21 17 14 12 10 10 10 11 13 13 11 8 6 6 7 9 11 12 13 14 14 14 15 15 15 15 14 13 11 9 8 8 8 8 9 10 11 12 14 17 18 19 19 18 17 16 16 16 16 16 15 13 10 8 8 9 10 12 14 16 16 15 13 11 10 10 10 11 12 13 14 15 16
4 2 3 6 8 10 12 14 17 20 22 23 21 19 15 13 12 11 10 11 12 12 12 10 9 8 8 9 10 10 11 12 13 12 12 13 14 15 16 15 14 12 10 10 10 9 8 7 8 9 11 13 15 17 18 18 18 17 16 16 16 16 17 17 15 13 11 10 11 13 15 17 17 16 15 12 11 11 11 11 12 13 15 16 16 17
5 5 7 9 11 12 13 16 19 22 23 22 20 17 14 13 12 12 11 12 11 11 10 9 9 8 8 10 10 11 12 12 12 12 11 11 12 13 15 15 15 13 11 10 10 9 7 6 6 6 7 10 13 15 17 18 17 16 14 14 14 16 17 18 18 17 15 13 13 14 16 16 16 15 13 10 10 10 11 11 12 13 16 18 18 18
6 7 8 10 11 13 15 19 22 24 23 21 18 16 14 13 12 12 12 11 10 9 8 8 8 8 8 10 10 11 11 11 11 11 11 11 11 11 13 14 14 14 13 12 11 10 8 7 6 6 6 6 7 10 13 14 15 14 11 11 12 14 16 17 18 18 16 14 14 13 14 14 14 13 12 11 10 10 9 10 12 15 18 19 19 18
Height
2997 2996 2994 2993 2991 2989 2988 2987 2985 2983 2981 2980 2979 2978 2976 2974 2973 2971 2970 2969 2967 2966 2964 2963 2962 2961 2960 2959 2958 2957 2957 2956 2956 2955 2954 2953 2952 2951 2950 2949 2948 2947 2946 2946 2945 2944 2943 2943 2942 2942 2941 2941 2941 2940 2940 2940 2939 2939 2939 2939 2938 2938 2938 2938 2938 2938 2938 2939 2939 2940 2941 2941 2941 2941 2942 2941 2942 2943 2945 2945 2945 2946 2946 2946 2945 2945
2994 2992 2991 2989 2987 2986 2984 2983 2981 2980 2978 2976 2975 2974 2972 2971 2969 2968 2966 2965 2964 2962 2961 2960 2958 2957 2956 2955 2954 2953 2953 2952 2951 2950 2950 2949 2948 2947 2946 2946 2945 2944 2943 2942 2941 2941 2940 2940 2939 2939 2939 2938 2938 2937 2937 2936 2936 2936 2936 2936 2936 2935 2935 2935 2936 2936 2936 2936 2936 2936 2937 2938 2938 2938 2938 2938 2939 2939 2940 2940 2941 2941 2942 2943 2943 2942
2991 2989 2987 2986 2984 2982 2981 2979 2977 2976 2975 2973 2971 2970 2969 2967 2966 2964 2963 2962 2961 2959 2958 2957 2955 2954 2953 2952 2951 2950 2949 2948 2947 2946 2946 2945 2945 2944 2943 2942 2941 2941 2940 2939 2938 2938 2937 2937 2936 2936 2936 2936 2935 2935 2934 2934 2933 2933 2933 2933 2933 2933 2933 2933 2933 2933 2933 2933 2933 2934 2934 2934 2935 2935 2935 2936 2936 2936 2936 2937 2937 2937 2938 2940 2940 2940
2987 2985 2984 2982 2981 2979 2977 2976 2974 2972 2971 2970 2968 2966 2965 2964 2962 2961 2960 2959 2957 2956 2955 2954 2952 2951 2950 2949 2948 2947 2946 2945 2944 2943 2942 2941 2941 2940 2940 2939 2938 2937 2937 2936 2936 2935 2935 2934 2934 2934 2933 2933 2932 2932 2932 2931 2931 2931 2931 2930 2930 2930 2930 2930 2930 2930 2931 2931 2931 2931 2931 2931 2932 2932 2932 2933 2933 2933 2934 2934 2934 2935 2935 2936 2936 2936
2984 2982 2980 2978 2977 2976 2974 2972 2971 2969 2967 2966 2965 2963 2962 2961 2959 2958 2956 2955 2954 2953 2952 2951 2950 2948 2947 2946 2945 2944 2943 2942 2941 2941 2940 2939 2938 2937 2937 2936 2935 2935 2934 2933 2933 2932 2932 2931 2931 2931 2931 2931 2930 2930 2929 2929 2929 2928 2928 2928 2928 2928 2928 2928 2928 2928 2928 2928 2928 2929 2929 2929 2929 2930 2930 2930 2930 2931 2931 2931 2931 2932 2932 2932 2933 2933
2981 2979 2976 2975 2973 2971 2970 2968 2967 2965 2963 2962 2961 2960 2959 2957 2956 2955 2953 2952 2951 2950 2949 2948 2947 2946 2944 2943 2942 2941 2941 2940 2939 2938 2937 2936 2936 2935 2934 2933 2933 2932 2931 2931 2931 2930 2930 2929 2929 2929 2928 2928 2928 2927 2927 2926 2926 2926 2926 2926 2925 2925 2925 2925 2926 2926 2926 2926 2926 2926 2926 2927 2927 2927 2927 2927 2928 2928 2928 2928 2929 2929 2929 2929 2930 2930
2977 2976 2974 2971 2969 2967 2966 2964 2963 2961 2960 2958 2956 2956 2955 2954 2953 2952 2951 2949 2948 2947 2946 2945 2944 2943 2942 2941 2939 2938 2938 2937 2936 2936 2935 2934 2934 2933 2932 2931 2931 2930 2929 2929 2928 2928 2927 2927 2927 2926 2926 2926 2926 2925 2925 2924 2924 2924 2923 2923 2923 2923 2923 2923 2923 2923 2923 2924 2924 2924 2924 2924 2925 2925 2925 2925 2925 2925 2926 2926 2926 2926 2926 2926 2927 2927
2973 2971 2970 2968 2966 2963 2961 2960 2959 2958 2956 2954 2953 2951 2951 2950 2950 2949 2947 2946 2945 2944 2943 2942 2941 2940 2939 2938 2937 2936 2935 2935 2934 2933 2933 2932 2931 2931 2930 2930 2929 2928 2927 2927 2926 2926 2925 2925 2925 2924 2924 2924 2923 2923 2923 2922 2922 2922 2921 2921 2921 2921 2921 2921 2921 2921 2921 2921 2921 2921 2922 2922 2922 2922 2922 2922 2922 2923 2923 2923 2923 2924 2924 2924 2924 2924
2970 2968 2966 2964 2963 2961 2958 2956 2955 2955 2954 2951 2950 2948 2947 2946 2946 2945 2944 2943 2942 2941 2941 2939 2938 2937 2936 2936 2935 2934 2933 2932 2931 2931 2931 2930 2929 2929 2928 2928 2927 2926 2926 2925 2924 2924 2923 2923 2922 2922 2922 2922 2921 2921 2921 2920 2920 2920 2919 2919 2919 2919 2919 2919 2919 2919 2919 2919 2919 2919 2919 2920 2920 2920 2920 2920 2920 2920 2920 2921 2921 2921 2921 2921 2921 2922
2966 2965 2963 2961 2959 2957 2956 2954 2952 2951 2951 2949 2947 2946 2945 2944 2942 2941 2940 2939 2939 2939 2938 2937 2936 2934 2933 2933 2932 2932 2931 2930 2929 2928 2928 2928 2927 2926 2926 2926 2926 2925 2924 2923 2922 2921 2921 2921 2920 2920 2920 2920 2919 2919 2919 2918 2918 2917 2917 2917 2917 2917 2917 2917 2917 2917 2917 2917 2917 2917 2917 2917 2917 2918 2918 2918 2918 2918 2918 2918 2918 2919 2919 2919 2919 2919
2963 2961 2960 2957 2956 2954 2953 2951 2949 2948 2947 2946 2944 2942 2941 2941 2940 2938 2936 2935 2935 2935 2935 2934 2933 2932 2931 2930 2929 2929 2928 2927 2926 2926 2925 2925 2925 2924 2924 2924 2923 2923 2922 2921 2921 2920 2919 2918 2918 2918 2917 2917 2917 2917 2917 2916 2916 2916 2916 2916 2915 2915 2915 2915 2915 2915 2916 2916 2916 2916 2916 2916 2916 2916 2916 2916 2916 2916 2916 2916 2916 2916 2916 2916 2917 2917
2960 2958 2956 2954 2952 2951 2949 2947 2946 2945 2944 2943 2941 2939 2938 2937 2936 2935 2934 2932 2931 2931 2931 2931 2930 2930 2929 2928 2927 2926 2926 2925 2924 2923 2923 2922 2922 2922 2921 2921 2921 2920 2920 2919 2919 2918 2917 2917 2916 2916 2916 2915 2915 2915 2915 2914 2914 2914 2914 2914 2914 2914 2914 2914 2914 2914 2914 2914 2914 2914 2914 2914 2914 2914 2914 2914 2914 2914 2914 2914 2914 2914 2914 2914 2915 2915
2956 2954 2952 2950 2948 2947 2946 2944 2943 2941 2940 2939 2938 2937 2935 2934 2933 2932 2931 2930 2929 2929 2929 2928 2927 2926 2927 2926 2926 2924 2923 2922 2922 2921 2921 2920 2919 2919 2919 2918 2918 2918 2918 2917 2917 2916 2916 2915 2914 2914 2914 2913 2913 2913 2913 2912 2912 2912 2912 2912 2912 2912 2912 2912 2912 2912 2912 2912 2912 2912 2912 2912 2912 2912 2912 2912 2912 2912 2912 2912 2912 2912 2912 2912 2912 2912
2953 2951 2949 2947 2946 2944 2943 2942 2940 2939 2937 2937 2936 2935 2933 2932 2931 2930 2929 2927 2926 2926 2926 2925 2924 2923 2924 2924 2924 2923 2921 2920 2919 2918 2918 2917 2917 2916 2916 2916 2915 2915 2915 2915 2915 2914 2914 2913 2913 2912 2912 2912 2911 2911 2911 2910 2910 2910 2910 2910 2910 2910 2910 2910 2910 2910 2910 2910 2911 2911 2911 2911 2910 2910 2910 2910 2910 2910 2910 2910 2910 2910 2910 2910 2910 2910
2950 2948 2946 2944 2943 2942 2941 2940 2938 2937 2935 2934 2933 2932 2931 2929 2928 2927 2927 2926 2925 2924 2923 2922 2921 2921 2921 2921 2921 2921 2920 2918 2917 2916 2916 2915 2915 2915 2914 2913 2913 2912 2912 2912 2912 2912 2912 2911 2911 2911 2910 2910 2909 2909 2908 2908 2908 2908 2908 2908 2908 2908 2908 2908 2908 2908 2908 2908 2909 2909 2909 2909 2909 2909 2909 2909 2908 2908 2908 2908 2908 2908 2908 2908 2908 2908
2947 2945 2943 2941 2940 2939 2938 2937 2936 2934 2932 2931 2931 2930 2929 2927 2926 2926 2926 2926 2924 2922 2921 2920 2918 2917 2917 2918 2919 2918 2917 2916 2915 2914 2913 2912 2912 2912 2912 2911 2910 2910 2910 2910 2910 2910 2910 2909 2909 2909 2908 2908 2907 2907 2906 2906 2906 2906 2906 2906 2906 2906 2906 2906 2906 2906 2906 2906 2906 2907 2907 2907 2907 2907 2907 2907 2907 2906 2906 2906 2906 2906 2906 2906 2906 2906
2944 2943 2941 2940 2938 2937 2936 2935 2934 2932 2931 2929 2928 2927 2926 2925 2925 2925 2925 2924 2922 2920 2919 2917 2916 2915 2914 2914 2915 2916 2915 2913 2912 2911 2910 2909 2909 2910 2910 2910 2908 2908 2908 2908 2908 2907 2907 2907 2906 2906 2906 2906 2905 2905 2905 2904 2904 2904 2904 2904 2904 2904 2904 2904 2904 2904 2904 2904 2905 2905 2905 2905 2905 2905 2905 2905 2905 2905 2905 2904 2904 2904 2904 2904 2904 2904
2941 2940 2939 2937 2936 2934 2933 2932 2931 2930 2928 2927 2926 2924 2923 2922 2922 2923 2922 2921 2920 2918 2916 2915 2915 2914 2913 2912 2911 2912 2912 2911 2910 2908 2907 2907 2907 2907 2908 2907 2906 2906 2905 2905 2905 2905 2905 2904 2904 2904 2903 2903 2903 2903 2902 2902 2902 2901 2901 2901 2901 2901 2902 2902 2902 2902 2902 2902 2902 2902 2902 2902 2902 2903 2903 2903 2903 2903 2903 2902 2902 2902 2902 2902 2902 2902
2938 2937 2936 2935 2933 2932 2931 2930 2929 2928 2926 2924 2923 2921 2920 2920 2920 2920 2919 2919 2917 2916 2914 2913 2912 2911 2911 2911 2910 2910 2910 2909 2907 2905 2905 2904 2904 2905 2906 2905 2904 2903 2902 2902 2902 2902 2902 2901 2901 2901 2901 2900 2901 2900 2900 2900 2900 2899 2899 2899 2899 2899 2899 2899 2899 2899 2900 2900 2900 2900 2900 2900 2900 2900 2901 2901 2901 2901 2901 2901 2900 2900 2900 2900 2900 2901
2935 2934 2933 2933 2931 2929 2927 2927 2926 2926 2924 2922 2920 2919 2918 2917 2917 2917 2917 2917 2915 2913 2912 2911 2910 2910 2910 2910 2909 2909 2908 2907 2905 2903 2902 2901 2901 2902 2903 2902 2901 2900 2899 2899 2899 2900 2899 2898 2898 2897 2897 2897 2897 2897 2897 2898 2897 2897 2897 2896 2896 2896 2896 2896 2896 2896 2897 2897 2897 2897 2897 2897 2898 2898 2898 2898 2898 2898 2898 2898 2898 2898 2898 2898 2898 2898
2932 2931 2931 2930 2929 2927 2925 2924 2924 2923 2922 2920 2918 2917 2916 2916 2915 2915 2916 2915 2914 2912 2911 2911 2910 2908 2907 2906 2906 2906 2906 2905 2903 2901 2899 2898 2898 2898 2899 2899 2898 2897 2896 2896 2896 2896 2896 2896 2895 2895 2894 2894 2894 2894 2894 2894 2895 2894 2894 2894 2894 2894 2894 2894 2894 2894 2894 2894 2894 2895 2895 2895 2895 2895 2895 2896 2896 2896 2896 2896 2896 2896 2896 2896 2896 2896
2930 2929 2928 2927 2926 2924 2923 2922 2921 2921 2920 2918 2916 2915 2914 2914 2913 2913 2913 2913 2911 2910 2909 2908 2906 2905 2904 2903 2903 2903 2903 2902 2900 2898 2896 2895 2894 2894 2895 2896 2895 2893 2892 2892 2893 2893 2893 2892 2892 2891 2891 2891 2891 2890 2891 2891 2891 2891 2891 2891 2891 2891 2891 2891 2891 2891 2891 2891 2891 2892 2892 2892 2892 2892 2893 2893 2893 2893 2893 2893 2893 2893 2893 2893 2894 2894
2927 2926 2926 2925 2924 2922 2921 2919 2918 2917 2917 2916 2915 2914 2913 2913 2912 2911 2910 2908 2907 2906 2905 2904 2903 2902 2901 2901 2900 2900 2899 2899 2898 2896 2894 2891 2890 2890 2891 2891 2890 2889 2888 2888 2889 2889 2889 2889 2888 2888 2888 2887 2887 2887 2887 2887 2887 2888 2888 2888 2888 2888 2888 2888 2888 2888 2888 2888 2888 2889 2889 2889 2890 2890 2890 2890 2891 2891 2891 2891 2891 2891 2891 2891 2891 2891
2925 2924 2923 2922 2921 2920 2918 2917 2916 2915 2915 2915 2915 2914 2912 2911 2910 2908 2906 2905 2904 2902 2901 2900 2899 2898 2897 2897 2897 2896 2896 2896 2895 2893 2891 2889 2887 2886 2886 2886 2885 2884 2883 2884 2885 2885 2884 2884 2884 2884 2883 2883 2883 2883 2883 2883 2884 2884 2884 2885 2885 2885 2885 2885 2885 2885 2885 2886 2886 2886 2886 2886 2887 2887 2887 2887 2888 2888 2888 2888 2888 2888 2888 2888 2889 2889
2922 2921 2920 2919 2918 2917 2916 2915 2915 2915 2915 2915 2914 2912 2910 2908 2906 2905 2903 2902 2901 2900 2899 2897 2896 2895 2895 2894 2894 2893 2893 2892 2891 2890 2887 2885 2883 2882 2882 2882 2881 2880 2879 2879 2880 2880 2879 2879 2879 2879 2878 2878 2878 2879 2879 2879 2879 2880 2880 2881 2881 2882 2882 2882 2882 2882 2882 2882 2883 2883 2883 2884 2884 2884 2885 2885 2885 2885 2886 2886 2886 2886 2886 2886 2886 2886
2920 2919 2918 2917 2917 2916 2916 2915 2915 2914 2914 2912 2910 2908 2906 2904 2903 2901 2900 2899 2898 2897 2896 2895 2893 2892 2892 2892 2891 2891 2890 2889 2888 2886 2884 2882 2879 2878 2878 2878 2878 2876 2875 2875 2875 2875 2874 2874 2874 2874 2874 2874 2874 2874 2874 2874 2875 2875 2875 2876 2877 2878 2878 2879 2879 2879 2880 2880 2880 2880 2880 2881 2881 2881 2882 2882 2882 2882 2883 2883 2883 2883 2883 2883 2883 2883
2917 2917 2916 2916 2916 2915 2914 2913 2911 2910 2908 2907 2905 2904 2902 2901 2900 2898 2897 2896 2896 2895 2894 2892 2891 2890 2890 2889 2889 2888 2887 2886 2886 2884 2882 2879 2876 2875 2874 2875 2874 2873 2871 2871 2871 2871 2870 2870 2870 2870 2870 2870 2870 2870 2870 2870 2870 2870 2871 2871 2873 2874 2875 2876 2876 2876 2876 2876 2877 2877 2877 2878 2878 2878 2879 2879 2879 2880 2880 2880 2880 2881 2881 2881 2881 2881
2915 2914 2913 2913 2912 2911 2910 2908 2906 2905 2904 2903 2902 2901 2900 2898 2897 2896 2894 2893 2893 2892 2891 2890 2889 2887 2886 2886 2886 2885 2885 2884 2882 2881 2879 2876 2874 2872 2872 2871 2871 2870 2868 2867 2867 2867 2867 2866 2866 2866 2866 2866 2866 2866 2866 2866 2866 2866 2867 2868 2869 2870 2871 2872 2872 2873 2873 2873 2874 2874 2874 2875 2875 2876 2876 2876 2876 2876 2877 2877 2878 2878 2878 2878 2878 2878
2912 2911 2909 2909 2908 2907 2906 2905 2903 2902 2901 2900 2899 2897 2896 2895 2894 2892 2891 2890 2890 2889 2888 2887 2886 2885 2884 2883 2882 2882 2881 2881 2879 2878 2876 2873 2871 2870 2869 2868 2867 2866 2865 2864 2863 2863 2863 2864 2864 2863 2863 2863 2863 2862 2862 2862 2862 2863 2863 2864 2865 2866 2867 2867 2868 2869 2869 2870 2870 2871 2871 2871 2872 2872 2872 2873 2873 2874 2874 2874 2875 2875 2875 2875 2875 2876
2909 2907 2906 2905 2904 2903 2902 2901 2900 2898 2897 2896 2895 2894 2892 2891 2890 2889 2888 2887 2886 2886 2885 2884 2883 2883 2881 2880 2879 2878 2878 2878 2876 2875 2872 2871 2869 2867 2866 2866 2865 2864 2863 2861 2860 2859 2859 2860 2861 2861 2860 2860 2860 2860 2859 2859 2859 2859 2860 2860 2861 2861 2862 2863 2864 2865 2865 2866 2866 2867 2868 2868 2869 2869 2869 2870 2870 2871 2871 2871 2872 2872 2872 2872 2872 2873
2906 2904 2902 2901 2901 2900 2898 2897 2896 2895 2893 2892 2891 2890 2888 2887 2886 2885 2884 2884 2883 2882 2882 2881 2881 2880 2879 2878 2876 2875 2874 2874 2874 2872 2870 2868 2866 2865 2864 2863 2862 2862 2861 2860 2858 2856 2856 2856 2857 2857 2857 2857 2857 2856 2856 2856 2856 2856 2856 2856 2857 2857 2858 2859 2859 2860 2861 2862 2863 2863 2864 2865 2865 2866 2866 2866 2867 2867 2868 2868 2869 2869 2870 2870 2870 2870
2902 2900 2899 2898 2896 2896 2894 2893 2892 2891 2890 2888 2887 2885 2884 2883 2882 2882 2881 2881 2880 2880 2879 2878 2878 2877 2877 2876 2875 2873 2871 2871 2871 2869 2867 2865 2863 2862 2862 2861 2861 2860 2859 2858 2857 2856 2854 2853 2853 2854 2854 2854 2854 2854 2854 2854 2853 2853 2853 2853 2853 2854 2854 2855 2855 2856 2857 2858 2859 2859 2860 2861 2861 2862 2862 2863 2863 2864 2865 2865 2866 2866 2866 2867 2867 2867
2898 2897 2896 2895 2893 2892 2891 2889 2888 2887 2886 2884 2882 2881 2880 2879 2879 2878 2878 2878 2877 2877 2876 2876 2875 2875 2874 2873 2872 2871 2870 2869 2867 2866 2864 2863 2861 2861 2860 2860 2859 2858 2857 2856 2855 2854 2853 2851 2851 2851 2851 2851 2851 2851 2851 2851 2851 2851 2850 2850 2850 2850 2851 2851 2851 2852 2853 2854 2855 2856 2856 2857 2858 2859 2859 2860 2860 2861 2861 2862 2862 2863 2863 2864 2864 2865
2895 2893 2892 2891 2890 2889 2887 2886 2885 2883 2881 2880 2879 2878 2877 2876 2876 2875 2875 2875 2875 2874 2874 2873 2873 2872 2871 2870 2869 2868 2867 2866 2865 2863 2862 2861 2860 2859 2858 2858 2857 2856 2855 2854 2853 2852 2851 2851 2850 2849 2849 2849 2849 2849 2849 2848 2848 2848 2847 2847 2847 2847 2847 2848 2848 2849 2849 2850 2851 2852 2853 2854 2855 2855 2856 2856 2857 2857 2858 2858 2859 2860 2860 2861 2861 2862
2891 2890 2889 2888 2887 2886 2884 2883 2881 2880 2879 2877 2876 2875 2875 2874 2873 2873 2873 2872 2872 2872 2872 2871 2871 2870 2869 2867 2866 2866 2865 2864 2863 2861 2860 2859 2858 2857 2857 2856 2856 2855 2854 2852 2851 2851 2850 2849 2848 2848 2847 2847 2846 2846 2846 2846 2846 2845 2845 2845 2845 2845 2845 2845 2845 2846 2846 2847 2848 2849 2850 2851 2851 2852 2852 2853 2854 2854 2854 2855 2856 2856 2857 2858 2858 2859
2888 2887 2886 2885 2884 2883 2881 2880 2879 2878 2876 2875 2874 2873 2872 2872 2871 2871 2871 2870 2870 2870 2869 2869 2868 2867 2866 2865 2864 2863 2862 2862 2861 2860 2859 2858 2857 2856 2856 2855 2854 2853 2852 2851 2850 2849 2848 2847 2847 2846 2846 2845 2845 2844 2844 2844 2843 2843 2842 2842 2842 2842 2842 2842 2843 2843 2844 2844 2845 2846 2846 2847 2848 2848 2849 2850 2850 2851 2851 2851 2852 2853 2854 2855 2856 2856
2886 2884 2883 2882 2881 2880 2878 2877 2876 2876 2874 2873 2872 2871 2871 2870 2870 2869 2869 2868 2868 2867 2867 2866 2865 2865 2864 2863 2862 2861 2861 2860 2859 2858 2858 2857 2856 2855 2854 2853 2853 2852 2851 2850 2848 2847 2846 2846 2845 2845 2844 2844 2843 2842 2842 2841 2841 2841 2841 2840 2840 2840 2840 2840 2841 2841 2841 2842 2842 2843 2843 2844 2845 2845 2846 2846 2847 2847 2848 2848 2849 2850 2851 2852 2853 2853
2882 2881 2880 2879 2878 2877 2876 2875 2874 2873 2872 2871 2871 2870 2869 2868 2868 2867 2866 2866 2866 2865 2864 2864 2863 2862 2861 2861 2860 2859 2859 2858 2858 2857 2856 2855 2855 2854 2853 2852 2851 2851 2849 2848 2847 2846 2845 2844 2844 2843 2843 2842 2842 2841 2841 2840 2840 2839 2839 2838 2838 2838 2838 2838 2838 2839 2839 2840 2840 2840 2841 2841 2842 2842 2843 2844 2844 2845 2845 2846 2846 2847 2848 2849 2850 2851
2879 2878 2877 2876 2875 2875 2874 2873 2872 2871 2871 2870 2869 2868 2867 2866 2866 2865 2864 2864 2863 2862 2862 2861 2861 2861 2860 2859 2859 2858 2857 2857 2856 2855 2855 2854 2853 2852 2852 2851 2850 2849 2848 2847 2846 2845 2844 2843 2842 2842 2841 2841 2840 2840 2839 2839 2838 2838 2837 2837 2837 2837 2837 2836 2837 2837 2837 2838 2838 2838 2839 2839 2839 2840 2841 2841 2841 2842 2842 2843 2844 2844 2845 2846 2847 2848
2876 2876 2875 2874 2873 2872 2872 2871 2871 2870 2869 2868 2867 2866 2865 2864 2864 2863 2862 2862 2861 2861 2860 2860 2859 2859 2858 2858 2857 2856 2856 2855 2855 2854 2853 2852 2852 2851 2850 2850 2849 2848 2847 2846 2845 2844 2844 2843 2842 2841 2840 2840 2839 2838 2838 2838 2837 2836 2836 2836 2836 2836 2836 2835 2835 2835 2836 2836 2836 2837 2837 2837 2837 2838 2838 2839 2839 2840 2840 2841 2841 2841 2842 2843 2845 2846
2874 2873 2872 2871 2871 2871 2871 2870 2869 2868 2867 2866 2865 2864 2863 2862 2862 2861 2861 2860 2859 2859 2858 2858 2858 2858 2857 2857 2856 2855 2855 2854 2853 2852 2852 2851 2851 2850 2849 2848 2847 2846 2846 2845 2844 2844 2843 2842 2841 2841 2840 2839 2838 2838 2837 2837 2836 2836 2836 2835 2835 2835 2835 2835 2835 2835 2835 2835 2835 2836 2836 2836 2836 2836 2836 2837 2837 2837 2838 2838 2839 2839 2840 2841 2842 2843
2872 2871 2870 2870 2869 2869 2869 2868 2867 2866 2866 2864 2863 2862 2861 2861 2860 2859 2859 2858 2858 2857 2857 2857 2857 2856 2856 2856 2855 2854 2853 2852 2852 2851 2851 2850 2850 2849 2848 2848 2847 2846 2845 2844 2844 2843 2842 2842 2841 2840 2839 2838 2837 2837 2836 2836 2836 2835 2835 2835 2834 2834 2835 2834 2834 2834 2834 2834 2834 2835 2835 2835 2835 2835 2835 2835 2836 2836 2836 2836 2837 2837 2838 2839 2840 2841
2870 2869 2869 2868 2868 2867 2867 2866 2866 2865 2864 2863 2861 2861 2860 2859 2858 2858 2857 2857 2856 2856 2856 2856 2856 2855 2855 2855 2854 2853 2853 2852 2851 2850 2850 2849 2849 2848 2848 2847 2846 2846 2845 2844 2843 2843 2842 2841 2841 2840 2839 2838 2837 2836 2836 2836 2836 2835 2835 2834 2834 2834 2834 2834 2834 2834 2834 2834 2834 2834 2834 2834 2834 2834 2834 2834 2834 2834 2834 2835 2835 2836 2837 2838 2838 2839
2868 2867 2867 2866 2866 2866 2865 2865 2864 2863 2862 2861 2860 2859 2858 2857 2857 2856 2856 2856 2856 2855 2855 2855 2855 2854 2854 2854 2853 2852 2852 2851 2851 2850 2849 2848 2848 2847 2847 2846 2846 2845 2845 2844 2843 2842 2841 2841 2841 2840 2838 2838 2837 2836 2836 2835 2835 2835 2834 2834 2834 2834 2834 2834 2834 2834 2834 2833 2833 2833 2833 2833 2833 2833 2833 2833 2833 2833 2833 2834 2835 2835 2836 2836 2837 2838
2866 2866 2866 2865 2865 2864 2863 2863 2862 2861 2860 2859 2858 2857 2856 2856 2856 2855 2855 2855 2854 2854 2854 2854 2853 2853 2853 2852 2852 2851 2851 2851 2850 2849 2848 2847 2847 2846 2846 2846 2845 2845 2844 2843 2843 2842 2841 2841 2840 2839 2838 2837 2837 2836 2836 2835 2835 2835 2834 2834 2834 2833 2833 2833 2833 2833 2833 2833 2833 2833 2832 2832 2832 2832 2832 2832 2832 2833 2833 2834 2834 2835 2835 2836 2836 2837
2865 2865 2864 2864 2863 2862 2862 2861 2860 2859 2858 2857 2856 2856 2855 2855 2855 2854 2854 2853 2853 2853 2852 2852 2852 2852 2851 2851 2851 2851 2850 2850 2849 2848 2848 2847 2846 2846 2845 2845 2844 2844 2843 2843 2842 2842 2841 2841 2840 2839 2838 2837 2836 2836 2835 2835 2835 2834 2834 2834 2833 2833 2833 2833 2833 2832 2832 2832 2832 2832 2832 2832 2832 2832 2832 2832 2832 2833 2833 2833 2834 2834 2835 2835 2836 2836
2864 2863 2863 2862 2862 2861 2860 2859 2858 2857 2857 2856 2855 2855 2854 2854 2853 2853 2853 2852 2852 2852 2851 2851 2851 2851 2851 2850 2850 2849 2849 2849 2848 2847 2847 2846 2846 2845 2844 2844 2843 2843 2843 2842 2842 2842 2841 2841 2840 2839 2838 2837 2836 2836 2835 2835 2834 2834 2834 2834 2833 2833 2833 2833 2832 2832 2832 2832 2832 2832 2832 2832 2832 2832 2832 2832 2832 2833 2833 2833 2833 2834 2834 2835 2835 2836
2863 2862 2861 2861 2860 2859 2859 2858 2857 2856 2855 2855 2854 2853 2853 2852 2852 2852 2852 2851 2851 2851 2851 2851 2850 2850 2850 2849 2849 2848 2848 2848 2847 2846 2846 2845 2845 2844 2844 2843 2843 2842 2842 2842 2841 2841 2841 2840 2839 2838 2838 2837 2836 2836 2835 2835 2834 2834 2833 2833 2833 2833 2833 2832 2832 2832 2832 2831 2831 2831 2832 2832 2832 2832 2832 2832 2832 2832 2832 2832 2833 2833 2834 2834 2834 2835
2861 2861 2860 2860 2859 2858 2857 2856 2855 2855 2854 2853 2853 2852 2852 2851 2851 2851 2851 2851 2850 2850 2850 2850 2850 2849 2849 2848 2848 2847 2847 2846 2846 2846 2845 2845 2844 2844 2843 2843 2842 2842 2841 2841 2841 2841 2840 2840 2839 2838 2837 2837 2836 2836 2835 2835 2834 2834 2833 2833 2833 2833 2833 2832 2832 2832 2831 2831 2831 2831 2831 2831 2831 2831 2831 2832 2832 2832 2832 2832 2832 2833 2833 2833 2834 2834
2860 2860 2859 2858 2857 2856 2856 2855 2854 2853 2852 2852 2851 2851 2851 2851 2850 2850 2850 2850 2849 2849 2849 2849 2849 2848 2848 2847 2847 2847 2846 2846 2846 2845 2844 2844 2843 2843 2842 2842 2841 2841 2841 2841 2841 2840 2840 2839 2839 2838 2837 2836 2836 2836 2835 2835 2834 2834 2833 2833 2833 2833 2832 2832 2831 2831 2831 2831 2831 2831 2831 2831 2831 2831 2831 2831 2831 2831 2831 2831 2832 2832 2832 2833 2833 2833
2859 2858 2857 2856 2856 2855 2854 2853 2852 2852 2851 2851 2850 2850 2850 2850 2850 2849 2849 2849 2849 2848 2848 2848 2848 2847 2847 2847 2846 2846 2846 2845 2845 2844 2844 2843 2843 2842 2842 2841 2841 2841 2841 2840 2840 2840 2839 2839 2838 2838 2837 2836 2836 2836 2835 2835 2834 2834 2834 2833 2833 2832 2832 2831 2831 2831 2831 2831 2830 2830 2830 2830 2830 2830 2830 2831 2831 2831 2831 2831 2831 2831 2832 2832 2832 2833